Las Vegas, NV

7:26 AM PST on December 06, 2016 (GMT -0800)
North Las Vegas

Weather History for KVGT - September, 2013

Change the Weather History Date:

Sunday, September 15, 2013

  Actual Average Record
Temperature  
Mean Temperature 86 °F 82 °F  
Max Temperature 97 °F 94 °F 105 °F (2000)
Min Temperature 75 °F 70 °F 63 °F (2011)
Degree Days  
Heating Degree Days 0 0  
Month to date heating degree days 0  
Since 1 July heating degree days 0  
Cooling Degree Days 21 17  
Month to date cooling degree days 285  
Year to date cooling degree days 2931  
Growing Degree Days 36 (Base 50)    
Moisture  
Dew Point 51 °F    
Average Humidity 31    
Maximum Humidity 46    
Minimum Humidity 18    
Precipitation  
Precipitation 0.00 in 0.01 in 0.00 in (2016)
Month to date precipitation 0.24  
Year to date precipitation 3.84  
Sea Level Pressure  
Sea Level Pressure 29.79 in    
Wind  
Wind Speed 4 mph (SSE)    
Max Wind Speed 9 mph    
Max Gust Speed -    
Visibility 10 miles    
Events      
T = Trace of Precipitation, MM = Missing Value Source: NWS Daily Summary

Daily Weather History Graph

Daily Weather History Graph

Search for Another Location

Airport or City:

Trip Planner

Search our weather history database for the weather conditions in past years. The results will help you decide how hot, cold, wet, or windy it might be!

Date:

Astronomy

Sep. 15, 2013 Rise Set
Actual Time 6:23 AM PDT 6:47 PM PDT
Civil Twilight 5:57 AM PDT 7:13 PM PDT
Nautical Twilight 5:27 AM PDT 7:43 PM PDT
Astronomical Twilight 4:56 AM PDT 8:14 PM PDT
Moon 4:13 PM PDT (9/15) 2:12 AM PDT (9/15)
Length of Visible Light 13h 15m
Length of Day
12h 24m
Waxing Gibbous, 83% of the Moon is Illuminated
Sep 15
Waxing Gibbous
Sep 19
Full
Sep 26
Last Quarter
Oct 4
New
Oct 11
First Quarter

Hourly Weather History & Observations

Time (PDT) Temp. Heat Index Dew Point Humidity Pressure Visibility Wind Dir Wind Speed Gust Speed Precip Events Conditions
12:53 AM 79.0 °F - 55.9 °F 45% 29.74 in 10.0 mi Calm Calm - N/A   Clear
1:53 AM 78.1 °F - 55.9 °F 46% 29.75 in 10.0 mi WSW 5.8 mph - N/A   Clear
2:53 AM 77.0 °F - 54.0 °F 45% 29.76 in 10.0 mi SW 5.8 mph - N/A   Clear
3:53 AM 77.0 °F - 53.1 °F 43% 29.77 in 10.0 mi WSW 6.9 mph - N/A   Clear
4:53 AM 75.9 °F - 53.1 °F 45% 29.78 in 10.0 mi SW 4.6 mph - N/A   Clear
5:53 AM 75.9 °F - 52.0 °F 43% 29.79 in 10.0 mi WSW 5.8 mph - N/A   Clear
6:53 AM 75.0 °F - 53.1 °F 46% 29.82 in 10.0 mi SW 4.6 mph - N/A   Clear
7:53 AM 78.1 °F - 53.1 °F 42% 29.83 in 10.0 mi SSE 5.8 mph - N/A   Clear
8:53 AM 81.0 °F - 52.0 °F 36% 29.84 in 10.0 mi SSE 5.8 mph - N/A   Clear
9:53 AM 84.0 °F - 52.0 °F 33% 29.85 in 10.0 mi SE 3.5 mph - N/A   Clear
10:53 AM 88.0 °F - 51.1 °F 28% 29.84 in 10.0 mi ESE 6.9 mph - N/A   Clear
11:53 AM 89.1 °F - 50.0 °F 26% 29.83 in 10.0 mi SE 8.1 mph - N/A   Clear
12:53 PM 91.9 °F - 48.9 °F 23% 29.82 in 10.0 mi Calm Calm - N/A   Clear
1:53 PM 93.0 °F - 50.0 °F 23% 29.80 in 10.0 mi ESE 5.8 mph - N/A   Clear
2:45 PM 96.8 °F - 46.4 °F 18% 29.78 in 10.0 mi South 4.6 mph - N/A   Clear
2:53 PM 93.9 °F - 48.9 °F 21% 29.77 in 10.0 mi SSW 8.1 mph - N/A   Clear
3:53 PM 96.1 °F - 46.9 °F 19% 29.75 in 10.0 mi SSE 5.8 mph - N/A   Clear
3:54 PM 96.8 °F - 46.4 °F 18% 29.78 in 10.0 mi South 4.6 mph - N/A   Clear
4:01 PM 96.8 °F - 46.4 °F 18% 29.78 in 10.0 mi SE 6.9 mph - N/A   Clear
4:53 PM 97.0 °F - 46.9 °F 18% 29.73 in 10.0 mi ESE 5.8 mph - N/A   Clear
5:53 PM 96.1 °F - 46.9 °F 19% 29.73 in 10.0 mi ESE 9.2 mph - N/A   Clear
6:53 PM 93.9 °F - 48.0 °F 21% 29.74 in 10.0 mi ESE 5.8 mph - N/A   Clear
7:53 PM 91.0 °F - 48.9 °F 23% 29.75 in 10.0 mi East 4.6 mph - N/A   Unknown
8:53 PM 90.0 °F - 48.9 °F 24% 29.78 in 10.0 mi Calm Calm - N/A   Unknown
9:53 PM 86.0 °F - 52.0 °F 31% 29.79 in 10.0 mi Calm Calm - N/A   Unknown
10:53 PM 84.0 °F 82.9 °F 55.0 °F 37% 29.80 in 10.0 mi WNW 4.6 mph - N/A   Unknown
11:53 PM 82.9 °F 81.9 °F 54.0 °F 37% 29.80 in 10.0 mi North 3.5 mph - N/A   Unknown